Regional Weather Roundup
Issued by NWS Charleston, SC

Current Version | Previous Version | Text Only | Print | Product List | Glossary Off
Versions: 1 2 3 4 5 6 7 8 9 10 11 12 13 14 15 16 17 18 19 20 21 22 23 24 25 26 27 28 29 30 31 32 33 34 35 36 37 38 39 40 41 42 43 44 45 46 47 48 49 50
707 ASUS42 KCHS 300512 RWRCHS REGIONAL WEATHER ROUNDUP NATIONAL WEATHER SERVICE CHARLESTON SC 100 AM EDT SUN APR 30 2017 NOTE: "FAIR" INDICATES FEW OR NO CLOUDS BELOW 12,000 FEET WITH NO SIGNIFICANT WEATHER AND/OR OBSTRUCTIONS TO VISIBILITY. NOT ALL STATIONS ARE QUALITY CONTROLLED. USE DATA WITH CAUTION... ESPECIALLY DEWPOINT OBSERVATIONS. SCZ027-030-031-034>040-042>050-300600- ...SOUTHEAST SOUTH CAROLINA... CITY SKY/WX TMP DP RH WIND PRES REMARKS N CHARLESTON PTCLDY 73 69 87 S7 30.19S WATERFRONT PRK N/A 75 72 90 S8 30.17S JOHNS ISLAND FAIR 75 72 88 VRB5 30.19F PINOPOLIS N/A 72 72 100 CALM 30.11S MONCKS CORNER FAIR 70 68 94 S3 30.19S FOG SUMMERVILLE FAIR 72 70 94 CALM 30.20S BEAUFORT MCAS CLOUDY 77 74 90 S8 30.18S BEAUFORT ARPT MOCLDY 73 72 94 S7 30.18S HILTON HEAD IS MOCLDY 75 73 94 SE7 30.19S WALTERBORO PTCLDY 70 70 100 SE5 30.19S ALLENDALE FAIR 72 70 94 S3 30.16S ...SOUTHERN MIDLANDS AND PEE DEE... CITY SKY/WX TMP DP RH WIND PRES REMARKS GEORGETOWN FAIR 72 70 94 S3 30.21S KINGSTREE FAIR 70 68 94 CALM 30.19S ORANGEBURG CLOUDY 72 70 93 S9 30.18F BARNWELL CLOUDY 73 72 94 CALM 30.17S AIKEN FAIR 68 66 94 SE5 30.21S MANNING FAIR 68 66 94 S21 30.19F COLUMBIA PTCLDY 72 67 84 SE5 30.16F SUMTER MOCLDY 71 68 90 SE7 30.16F FLORENCE MOCLDY 71 70 96 S6 30.19S MYRTLE BEACH NOT AVBL N MYRTLE BEACH CLOUDY 74 72 93 S12 30.19F $$ GAZ063-065-086>088-099>101-113>116-118-119-134>141-150-300600- ...SOUTHEAST GEORGIA... CITY SKY/WX TMP DP RH WIND PRES REMARKS SAVANNAH ARPT CLEAR 74 69 85 SE8 30.17F HUNTER AAF CLEAR 73 73 100 CALM 30.15S FOG FORT STEWART PTCLDY 70 68 92 E3 30.14S STATESBORO PTCLDY 72 72 100 CALM 30.15F SYLVANIA PTCLDY N/A N/A N/A CALM 30.17F CLAXTON FAIR N/A N/A N/A CALM 30.15F ...CSRA...CENTRAL AND FAR SOUTHEAST GEORGIA... CITY SKY/WX TMP DP RH WIND PRES REMARKS THOMSON PTCLDY 73 67 82 SW9 30.19F AUGUSTA-BUSH PTCLDY 72 68 87 SE7 30.15S AUGUSTA-DANIEL PTCLDY 73 66 78 SE5 30.17S SWAINSBORO FAIR 72 68 88 SE9 30.15F VIDALIA CLOUDY 73 68 83 SE6 30.15F EASTMAN FAIR 76 59 56 SE5 30.15S HAZLEHURST FAIR 74 71 90 SE7 30.12F ALMA CLOUDY 72 70 93 SE7 30.13S WAYCROSS NOT AVBL JESUP FAIR 72 68 88 SE3 30.15S BAXLEY FAIR 73 73 100 SE6 30.14S BRUNSWICK CLEAR 77 72 83 SE10 30.16S SAINT SIMONS CLEAR 75 71 87 SE13 30.15F $$ SCZ027-028-034-036>038-045-046-048>050-GAZ119-141-300600- ...LAKE AND SUPPLEMENTAL COASTAL OBSERVATIONS... STATION/POSITION TIME TEMP WIND PRES WAVE SWELL AIR SEA DIR/SP/G HT/PER HT/PER/DIR (UTC) (F) (DEG/KT/KT) (MB) (FT/S) (FT/S/D) WINYAH BAY 0345 74 160/ 9 1022.0 LAKE MURRAY 0420 74 150/ 8/ 10 1021.0 ACE BASIN NERRS NOT AVBL FORT PULASKI 0442 74 76 140/ 4/ 6 1022.1S SAPELO ISLAND 0400 75 150/ 7 1021.0 $$ ANZ835-935-AMZ111-154-330-350-352-354-370-450-454-472-300600- ...C-MAN AND BUOY OBSERVATIONS... STATION/POSITION TIME TEMP WIND PRES WAVE SWELL AIR SEA DIR/SP/G HT/PER HT/PER/DIR (UTC) (F) (DEG/KT/KT) (MB) (FT/S) (FT/S/D) BUOY 41004 0450 76 76 150/ 10/ 12 1022.3R 3/ 7 2/120/ 7 BUOY 41008 0450 75 74 150/ 12/ 16 1020.9F 3/ 7 2/110/ 7 FOLLY BEACH CMAN 0400 75 160/ 10/ 11 1023.1R CAPERS NEARSHORE 0408 76 76 160/ 10/ 14 1022.4R FRIPP NEARSHORE 0408 75 73 150/ 10/ 12 1021.8R STATION/POSITION TIME TEMP WIND PRES WAVE SWELL AIR SEA DIR/SP/G HT/PER HT/PER/DIR (UTC) (F) (DEG/KT/KT) (MB) (FT/S) (FT/S/D) 5E ST. MARYS GA 0430 75 N/A 3/ 5 FRYING PAN BUOY 0450 75 74 190/ 10/ 12 1022.9F 3/ 7 2/120/ 7 BUOY 41025 0450 76 75 220/ 16/ 17 1022.7F 3/ 5 2/140/ 7 CAPE LOOKOUT NC 0400 73 210/ 7/ 9 1022.9F BUOY 41002 0450 74 76 180/ 10/ 12 1024.9R 3/ 7 2/110/ 7 BUOY 41010 0450 77 78 130/ 16/ 19 1022.0S 5/ 7 2/ 80/11 ST AUGUSTINE FL 0500 76 78 140/ 18/ 20 1021.4F $$

USA.gov is the U.S. government's official web portal to all federal, state and local government web resources and services.